Temp
3 3 4 4 5 6 5 4 0 4 5 3 3 3 5 6 6 6 5 5 5 7 9 7 6 6 5 1 3 3 3 5 6 7 7 7 8 6 7 5 6 2 3 6
3 3 3 4 5 5 4 3 3 5 5 2 3 4 5 6 6 7 7 7 8 9 8 8 8 8 9 7 6 5 6 6 6 6 6 6 7 6 7 5 4 1 4 6
2 3 3 4 4 5 4 3 -2 2 4 3 2 3 4 4 6 7 7 8 7 7 7 8 8 8 9 9 8 9 8 6 5 5 7 7 7 6 6 6 2 4 4 9
2 2 2 3 4 5 3 2 -0 -1 0 1 2 2 3 3 5 5 6 7 6 6 6 6 6 7 7 9 8 8 9 6 7 7 7 8 8 6 6 2 6 6 9 8
1 2 2 2 3 3 2 0 -1 -1 -1 1 3 2 3 3 4 4 5 6 5 5 5 5 5 5 6 7 7 7 7 7 8 6 7 7 7 7 6 7 7 8 9 9
1 1 1 2 2 2 0 -0 -1 -1 0 -1 1 1 2 2 2 4 5 6 5 6 6 6 6 6 6 5 7 6 7 6 6 5 7 7 7 7 7 7 7 9 8 9
1 1 1 1 1 0 -1 -1 -1 -1 -2 -2 -0 0 1 2 2 3 5 5 5 7 7 8 8 8 8 7 6 6 7 7 5 4 6 5 7 8 8 8 8 8 9 9
2 2 1 1 1 0 -1 -1 -1 -1 -3 -2 -0 -1 0 1 2 2 3 5 5 6 6 6 7 6 7 8 7 6 6 6 5 4 4 6 8 8 7 7 7 8 8 8
2 1 1 1 0 -0 -1 -1 -2 -2 -2 -2 -1 -1 -0 -0 1 1 3 4 6 6 4 5 6 4 7 7 7 7 6 4 4 3 6 7 8 8 8 9 6 8 8 7
2 1 1 0 -0 -1 -1 -1 -2 -2 -2 -1 -1 -2 -2 0 0 -0 1 0 3 5 3 3 3 5 6 5 6 7 5 4 3 5 4 5 7 8 9 8 6 8 9 9
3 1 1 0 -0 -1 -1 -1 -2 -3 -2 -2 -1 -1 -1 -1 -1 -1 0 1 3 4 4 3 4 4 4 6 5 6 5 4 4 5 5 5 7 8 8 7 9 9 9 9
4 2 1 0 -0 -1 -1 -1 -2 -2 -3 -1 -1 -0 -0 -0 1 -2 -1 0 -0 3 4 3 2 4 3 3 5 5 6 5 5 5 6 6 7 8 8 9 9 8 9 9
4 3 2 0 -0 -1 -1 -2 -1 -2 -3 -2 -1 1 1 1 2 1 -1 0 0 1 -0 3 2 4 2 4 5 5 5 5 5 6 7 7 7 7 8 8 8 8 8 8
3 3 2 1 -0 -1 -1 -1 -1 -2 -3 -3 -1 1 1 0 0 1 0 1 -0 -1 -0 3 2 3 4 4 4 4 5 6 6 5 5 6 6 7 7 7 7 7 7 7
3 3 2 1 -0 -2 -1 -1 -2 -2 -2 -2 -2 -0 1 1 1 1 1 1 -1 -1 -0 3 4 3 4 3 3 3 5 5 5 5 6 6 6 6 6 6 6 6 6 6
3 3 2 1 -0 -1 -1 -1 -2 -2 -3 -2 -2 -1 1 1 1 0 0 -0 -0 -1 -0 3 4 5 5 2 3 5 7 7 8 6 7 7 6 6 6 6 6 5 5 5
3 3 2 2 0 -1 -2 -2 -2 -2 -2 -2 -2 -2 -0 -0 0 0 -0 -1 0 -0 1 3 4 5 5 4 2 6 6 7 7 7 7 5 5 5 5 5 5 5 5 5
3 3 2 1 -0 -1 -1 -2 -2 -2 -2 -3 -3 -3 -1 -0 -1 1 1 1 0 1 2 4 4 4 5 4 4 5 6 6 5 5 5 5 5 5 5 5 5 5 4 4
3 2 1 -1 -2 -1 -2 -2 -2 -2 -3 -3 -2 -2 -2 0 0 -0 1 1 2 2 3 3 4 3 4 4 4 5 4 4 5 4 4 4 3 3 2 3 3 4 4 3
3 2 0 -2 -2 -2 -2 -2 -2 -3 -3 -2 -3 -3 -2 -2 -1 0 1 2 3 3 3 4 3 4 4 3 3 3 3 3 3 3 2 2 2 2 1 1 1 1 1 2
2 1 -0 -2 -2 -2 -2 -2 -2 -2 -3 -2 -2 -2 -2 -1 -0 0 1 1 2 3 2 3 2 2 -0 1 1 1 1 1 1 1 1 1 1 0 0 -0 -0 -0 0 -0
1 0 -2 -2 -1 -2 -3 -5 -2 -2 -4 -1 -1 -1 -2 -1 -1 -1 1 2 1 3 2 2 2 1 -0 0 0 -0 0 0 -0 -0 -1 -1 -1 -1 -1 -2 -1 -1 -1 -1
-1 -2 -3 -3 -2 -3 -5 -4 -6 -6 -2 -2 -2 -2 -2 -1 -0 0 1 2 2 2 2 3 2 -0 -0 -0 -1 -1 -2 -2 -2 -2 -2 -2 -2 -2 -2 -2 -2 -2 -1 -1
-0 -2 -6 -5 -6 -3 -2 -4 -1 -1 -2 -2 -3 -3 -2 -1 -0 1 2 2 1 2 2 2 -3 -1 -1 -1 -1 -2 -2 -1 -1 -1 -2 -2 -2 -2 -2 -2 -2 -2 -2 -2
-1 -3 -6 -9 -2 -2 -2 -3 -3 -2 -2 -3 -3 -3 -2 -1 -0 0 1 2 2 3 3 1 0 -0 -1 -1 -2 -2 -2 -2 -1 -1 -1 -1 -1 -1 -2 -2 -2 -2 -3 -3
-2 -4 -5 -4 -5 -4 -3 -2 -2 -2 -3 -3 -4 -2 -1 1 1 2 2 2 1 2 0 -1 -1 -1 -1 -2 -2 -2 -2 -1 -0 -1 -1 -1 -2 -2 -2 -2 -2 -3 -3 -3
-5 -4 -5 -5 -5 -5 -3 -2 -2 -3 -3 -4 -4 -2 -0 -2 0 2 1 1 0 -1 -2 -2 -2 -2 -2 -2 -2 -2 -2 -1 -1 -1 -1 -2 -2 -2 -3 -3 -3 -3 -3 -4
Height
1505 1499 1494 1487 1479 1470 1466 1462 1464 1463 1459 1463 1462 1461 1457 1453 1446 1440 1438 1436 1432 1422 1419 1423 1423 1422 1421 1426 1434 1442 1444 1439 1438 1441 1444 1447 1445 1452 1452 1461 1464 1485 1481 1463
1505 1499 1494 1487 1480 1473 1467 1466 1465 1464 1459 1468 1466 1463 1459 1451 1448 1442 1436 1432 1428 1421 1420 1422 1418 1417 1414 1418 1421 1426 1428 1430 1436 1445 1447 1448 1448 1451 1448 1451 1463 1483 1475 1459
1505 1499 1494 1488 1481 1474 1470 1469 1472 1468 1467 1468 1467 1464 1459 1456 1447 1443 1439 1434 1428 1427 1423 1421 1422 1419 1414 1416 1418 1417 1418 1426 1430 1435 1426 1432 1440 1443 1446 1448 1472 1467 1465 1445
1505 1500 1494 1488 1482 1476 1472 1472 1478 1478 1473 1468 1468 1468 1463 1460 1454 1449 1442 1435 1437 1436 1433 1428 1428 1425 1419 1414 1415 1417 1417 1427 1424 1425 1425 1427 1429 1438 1443 1458 1445 1453 1444 1445
1505 1500 1496 1490 1484 1480 1475 1477 1480 1479 1474 1473 1466 1467 1465 1463 1458 1457 1447 1442 1440 1436 1438 1438 1436 1434 1427 1424 1418 1417 1418 1426 1425 1434 1430 1429 1434 1437 1440 1440 1441 1441 1439 1440
1505 1502 1497 1492 1487 1484 1483 1482 1483 1483 1477 1475 1471 1473 1470 1465 1465 1453 1450 1445 1442 1438 1437 1435 1432 1431 1429 1428 1424 1422 1422 1427 1431 1440 1433 1432 1438 1434 1436 1438 1439 1437 1442 1437
1506 1502 1497 1495 1491 1489 1489 1486 1483 1480 1479 1478 1477 1473 1470 1466 1463 1457 1450 1445 1442 1438 1435 1430 1428 1428 1426 1424 1424 1422 1424 1427 1432 1447 1440 1448 1432 1429 1431 1435 1436 1436 1436 1435
1506 1502 1498 1496 1494 1492 1490 1489 1487 1486 1484 1478 1475 1474 1469 1463 1461 1457 1450 1445 1443 1438 1433 1433 1433 1432 1430 1426 1425 1425 1424 1428 1436 1444 1447 1437 1431 1430 1433 1434 1436 1433 1435 1436
1503 1501 1497 1496 1495 1492 1491 1490 1489 1489 1486 1479 1477 1475 1471 1468 1463 1457 1448 1443 1440 1438 1435 1438 1435 1447 1432 1432 1429 1425 1426 1428 1436 1444 1439 1434 1429 1429 1428 1429 1440 1430 1432 1435
1501 1499 1497 1495 1494 1491 1490 1489 1488 1488 1485 1478 1477 1474 1472 1472 1470 1466 1458 1451 1441 1439 1440 1443 1447 1439 1434 1438 1434 1431 1436 1437 1443 1440 1447 1438 1429 1428 1428 1435 1442 1429 1431 1434
1498 1497 1495 1494 1494 1492 1490 1491 1489 1488 1484 1475 1470 1469 1469 1468 1472 1471 1461 1455 1447 1444 1443 1445 1445 1441 1441 1437 1436 1433 1436 1441 1443 1439 1441 1444 1428 1430 1432 1432 1429 1430 1433 1435
1497 1496 1495 1493 1492 1491 1489 1488 1488 1484 1482 1473 1470 1467 1465 1464 1463 1468 1466 1459 1458 1448 1447 1446 1447 1443 1444 1445 1441 1436 1437 1437 1437 1438 1436 1430 1429 1430 1430 1431 1432 1433 1433 1435
1496 1494 1493 1492 1491 1490 1490 1486 1482 1481 1476 1468 1464 1464 1465 1464 1461 1462 1465 1459 1456 1453 1454 1450 1448 1446 1445 1445 1439 1437 1435 1433 1435 1434 1431 1430 1431 1432 1432 1432 1432 1434 1435 1436
1494 1492 1490 1490 1488 1486 1485 1483 1482 1479 1479 1475 1464 1461 1462 1461 1460 1458 1459 1460 1458 1456 1455 1449 1448 1447 1442 1442 1440 1439 1435 1433 1433 1434 1433 1432 1433 1433 1434 1434 1435 1435 1435 1436
1491 1490 1488 1486 1485 1484 1482 1481 1481 1480 1482 1474 1462 1454 1452 1455 1453 1454 1454 1456 1459 1459 1458 1450 1446 1444 1443 1440 1440 1439 1431 1431 1434 1435 1431 1432 1432 1434 1434 1435 1435 1436 1436 1436
1488 1486 1484 1483 1482 1480 1479 1480 1483 1480 1477 1471 1465 1460 1452 1453 1450 1446 1449 1453 1457 1459 1457 1450 1445 1443 1443 1445 1442 1429 1428 1428 1428 1429 1430 1431 1432 1433 1434 1434 1435 1435 1436 1435
1485 1484 1482 1480 1477 1476 1478 1480 1478 1476 1474 1472 1465 1459 1455 1452 1450 1448 1448 1451 1454 1455 1454 1449 1445 1442 1443 1441 1441 1428 1428 1428 1429 1430 1430 1432 1432 1433 1434 1434 1435 1435 1435 1435
1482 1481 1478 1475 1475 1476 1478 1477 1476 1473 1472 1469 1469 1464 1457 1455 1452 1450 1450 1450 1452 1449 1447 1445 1442 1441 1439 1434 1429 1428 1429 1429 1429 1430 1430 1430 1431 1432 1433 1433 1434 1434 1434 1434
1479 1477 1475 1475 1476 1477 1479 1477 1474 1474 1476 1470 1471 1469 1465 1456 1454 1449 1448 1446 1447 1446 1443 1441 1442 1439 1435 1426 1426 1427 1428 1429 1430 1430 1431 1431 1431 1432 1432 1432 1432 1431 1431 1431
1475 1474 1475 1475 1477 1475 1477 1474 1474 1472 1470 1471 1471 1466 1466 1459 1454 1449 1444 1442 1441 1439 1437 1437 1435 1429 1424 1424 1424 1425 1426 1428 1429 1430 1430 1430 1430 1431 1431 1431 1431 1430 1429 1429
1474 1473 1474 1476 1475 1476 1476 1477 1474 1473 1469 1462 1463 1464 1463 1459 1452 1449 1443 1436 1436 1434 1435 1433 1432 1428 1423 1424 1425 1426 1426 1427 1428 1428 1428 1428 1428 1429 1429 1429 1428 1427 1426 1425
1473 1473 1473 1475 1475 1477 1477 1477 1473 1469 1472 1468 1467 1464 1462 1456 1451 1447 1440 1435 1434 1431 1432 1433 1428 1423 1423 1424 1425 1425 1426 1426 1427 1427 1427 1427 1427 1427 1427 1426 1425 1424 1423 1421
1470 1471 1474 1476 1479 1481 1482 1481 1479 1475 1466 1465 1464 1464 1456 1452 1448 1443 1437 1432 1431 1430 1430 1426 1421 1422 1423 1425 1425 1426 1426 1426 1426 1426 1426 1426 1426 1426 1425 1424 1423 1421 1420 1418
1471 1473 1478 1478 1484 1476 1474 1476 1476 1473 1468 1465 1464 1459 1457 1447 1444 1436 1431 1429 1430 1429 1428 1423 1423 1422 1423 1424 1425 1426 1427 1427 1427 1427 1427 1427 1426 1425 1424 1423 1422 1421 1419 1417
1474 1475 1478 1479 1473 1472 1470 1471 1473 1471 1468 1465 1464 1455 1453 1445 1439 1431 1428 1427 1425 1423 1420 1421 1421 1421 1422 1423 1424 1426 1427 1428 1428 1427 1427 1426 1425 1425 1424 1422 1421 1419 1418 1417
1473 1474 1474 1472 1471 1467 1465 1468 1469 1468 1466 1459 1458 1454 1446 1435 1431 1424 1421 1422 1423 1423 1424 1423 1421 1420 1421 1422 1424 1425 1427 1427 1427 1427 1426 1426 1425 1424 1423 1422 1420 1419 1417 1416
1471 1471 1469 1471 1469 1466 1463 1463 1466 1466 1464 1463 1458 1453 1441 1439 1429 1422 1421 1423 1427 1426 1424 1421 1420 1419 1420 1421 1424 1425 1426 1427 1427 1426 1426 1425 1424 1423 1422 1421 1420 1418 1417 1415
Wind_Speed
28 29 30 31 31 32 23 3 2 15 5 5 3 3 8 7 7 2 7 3 5 4 1 3 5 1 2 22 7 14 12 4 7 11 2 6 3 5 3 4 4 0 3 5
28 31 31 30 29 28 18 4 4 11 10 4 3 7 6 4 7 6 4 4 4 5 5 1 3 4 3 19 10 15 11 2 4 4 3 3 5 5 3 4 3 4 5 5
27 30 30 29 28 25 11 4 4 7 9 3 2 5 5 8 11 5 9 4 6 6 6 6 5 6 3 3 8 2 6 2 4 6 4 6 6 6 6 4 3 4 4 3
25 29 28 28 29 23 7 7 2 3 3 4 6 7 8 7 9 10 14 5 9 5 4 6 6 5 6 4 7 5 1 3 3 6 3 6 10 10 8 4 4 5 3 6
24 28 26 27 28 25 25 5 5 6 5 10 6 7 6 9 7 4 6 9 15 5 3 1 3 5 4 2 6 4 4 3 2 6 3 5 5 9 7 3 3 3 1 4
22 28 23 24 26 25 12 13 7 4 6 6 3 2 6 7 15 8 12 13 10 4 4 10 15 12 13 7 3 5 2 4 2 2 3 5 2 10 10 4 4 4 4 5
20 24 21 21 21 22 17 14 8 4 3 3 2 3 10 9 13 9 16 21 3 7 21 16 6 3 1 5 5 4 2 3 2 3 3 0 2 1 7 7 6 5 3 2
17 22 19 18 17 18 16 11 11 5 3 5 5 10 6 12 11 7 8 9 11 18 9 4 3 3 4 3 4 6 3 3 3 4 2 3 1 2 5 6 6 6 6 5
13 18 17 17 16 18 16 10 11 8 4 3 9 6 8 4 7 6 6 15 12 8 2 3 1 0 2 3 5 4 4 5 3 2 3 1 0 1 3 4 3 6 8 6
14 18 15 13 14 17 17 14 9 6 5 5 10 4 2 6 5 4 8 12 11 11 3 2 2 2 2 2 3 3 3 3 3 1 2 4 2 1 1 3 4 5 14 11
16 13 12 13 14 14 15 15 15 9 6 19 8 3 7 14 9 3 10 11 1 4 4 2 2 1 1 1 3 2 0 2 0 1 2 1 3 3 2 3 6 11 12 6
15 13 12 12 13 14 14 14 16 13 12 19 24 21 21 16 9 18 6 6 7 5 2 2 2 2 2 0 1 4 1 2 1 4 3 2 1 1 3 5 7 5 7 7
12 13 13 12 13 14 13 17 18 20 10 19 6 6 1 6 7 7 6 4 4 4 7 3 2 2 2 1 2 2 2 1 1 2 0 2 5 6 6 5 5 4 5 5
11 12 14 15 15 13 12 16 18 19 7 5 6 5 20 22 15 13 14 14 18 15 19 3 1 2 1 2 3 1 3 1 1 2 4 5 3 4 5 6 5 4 3 2
9 11 14 15 14 13 15 18 16 9 4 4 13 26 1 9 8 13 21 25 17 7 5 3 2 3 2 1 1 3 4 4 3 4 4 2 4 6 5 3 3 2 1 1
9 12 16 17 15 14 17 4 2 1 15 8 4 11 12 11 15 8 13 19 13 6 5 5 5 4 1 1 2 4 6 6 6 5 5 4 9 7 3 1 1 2 3 3
9 13 18 19 15 11 5 3 8 15 15 4 6 7 5 16 7 1 5 12 11 9 5 4 4 4 5 2 3 3 2 5 5 9 9 6 9 4 4 2 0 2 2 3
10 15 18 16 7 3 3 3 8 12 4 2 2 4 8 12 7 2 8 6 9 8 4 3 2 4 2 4 5 3 1 5 6 5 5 4 7 7 5 4 4 5 5 5
11 13 13 4 5 2 6 13 12 5 1 2 1 2 3 10 6 6 7 8 3 5 2 3 4 3 5 5 5 5 6 4 4 4 2 3 4 5 6 6 8 8 8 8
10 8 3 3 4 14 7 2 1 1 1 2 3 3 3 4 3 4 3 7 3 3 4 4 4 4 10 4 3 6 6 5 4 4 4 3 3 4 6 6 7 8 8 9
8 7 2 6 7 3 2 2 1 2 3 4 4 7 3 9 3 3 4 1 2 2 3 3 2 3 2 6 4 3 2 1 2 3 5 5 6 8 9 9 10 11 11 12
10 5 3 3 4 1 1 2 2 2 2 3 4 6 11 9 5 5 4 2 1 3 3 2 2 1 4 6 5 4 2 1 2 3 4 5 6 7 7 8 9 9 10 10
5 4 3 3 2 3 2 2 4 3 2 2 7 7 5 5 6 6 2 3 2 6 2 3 2 4 7 7 6 4 2 1 1 2 2 1 1 2 2 3 5 6 7 9
3 3 4 3 3 3 3 2 3 7 8 14 18 8 6 5 4 3 3 1 2 2 3 4 1 4 8 8 6 6 7 7 6 5 4 4 3 3 3 4 6 6 7 8
1 2 2 4 5 5 3 5 7 12 13 14 13 8 7 3 4 3 2 3 3 3 2 1 5 4 10 10 8 9 8 5 3 3 5 5 5 5 5 6 7 7 7 7
1 3 2 6 3 4 3 6 10 8 12 16 5 4 3 5 2 3 3 3 2 1 2 8 7 6 10 11 12 12 8 4 2 3 4 4 5 4 6 8 8 7 8 8
1 4 6 11 10 10 9 4 7 10 10 2 3 3 3 4 3 2 3 3 2 8 12 9 5 6 11 12 11 10 8 2 1 2 4 5 6 6 6 6 7 7 8 8
Wind_Direction
3 3 4 7 1 358 7 37 53 7 24 41 358 351 310 291 288 221 256 264 248 270 84 17 224 211 200 174 161 184 197 254 148 169 150 146 185 185 232 131 202 304 142 273
4 4 5 8 7 4 358 23 342 31 54 56 348 319 302 319 320 299 311 299 317 313 4 71 11 352 349 156 171 174 173 204 111 107 106 147 188 212 198 112 88 201 138 256
5 4 5 9 11 11 14 21 18 7 41 70 360 335 334 333 315 302 339 341 15 346 16 13 17 348 324 82 151 207 138 135 163 177 139 127 187 166 172 125 121 167 215 276
3 6 6 6 10 22 29 38 67 4 338 340 336 353 6 337 4 337 330 0 6 332 358 360 11 340 331 350 38 167 136 98 60 39 126 155 173 172 169 145 162 143 253 206
2 7 9 4 10 23 43 51 6 349 287 309 322 10 3 335 350 294 319 351 334 11 51 46 308 2 10 1 325 33 12 130 95 42 67 155 158 175 157 130 142 234 261 234
6 5 7 7 9 15 38 29 9 318 313 337 6 350 340 313 312 285 293 322 321 355 329 303 282 269 267 249 348 349 63 135 83 18 52 87 128 199 184 182 184 162 185 235
5 357 3 9 11 16 18 25 10 349 296 357 350 306 312 326 311 284 291 305 310 328 321 314 287 248 297 34 19 33 95 111 92 133 40 176 272 33 177 175 190 209 222 202
352 351 359 4 8 12 14 26 13 351 306 283 320 326 297 323 329 303 290 317 314 318 320 9 354 333 359 342 358 10 40 108 92 133 149 292 254 205 152 163 236 196 173 137
349 347 355 4 9 3 11 15 6 350 318 276 325 323 319 328 337 323 301 329 343 352 65 41 25 311 305 342 338 7 59 71 109 103 113 182 314 142 177 115 287 179 153 155
347 341 356 1 2 1 6 4 355 345 299 276 317 275 291 341 342 289 294 343 335 5 33 60 63 306 304 356 4 352 4 358 101 60 117 292 266 169 185 168 240 150 157 151
342 337 353 359 358 353 344 353 356 330 289 289 260 225 271 298 294 273 327 329 342 320 41 31 305 35 326 342 324 341 165 87 326 84 75 328 159 71 179 210 114 133 134 136
344 347 349 353 352 345 326 338 347 336 278 271 295 294 289 269 289 259 257 291 309 334 321 31 297 336 15 76 307 343 338 181 227 169 221 251 129 234 118 144 130 110 147 196
340 343 338 338 340 335 327 323 320 326 291 304 318 328 199 283 299 241 224 263 299 18 357 301 286 296 124 313 260 303 306 186 141 47 336 112 94 104 101 97 100 98 138 162
333 337 335 332 329 327 317 312 317 311 289 288 290 293 292 293 265 254 251 270 276 316 331 293 268 263 155 250 265 198 221 35 160 316 22 101 98 117 128 119 123 122 133 173
326 328 329 329 329 332 316 317 313 314 267 279 290 309 277 338 302 270 258 248 255 294 311 276 250 271 339 317 355 261 196 191 161 224 203 197 190 153 139 128 95 82 124 240
334 332 329 329 326 317 321 336 319 54 332 303 313 321 319 343 326 278 241 231 217 213 242 249 281 281 274 319 261 268 232 223 190 174 158 192 166 172 175 200 295 299 290 281
329 329 322 323 317 301 289 264 287 307 320 312 309 310 316 339 317 322 170 196 203 214 246 239 246 246 183 246 228 280 340 198 184 156 157 153 189 204 188 185 258 327 315 288
335 327 323 329 342 20 26 305 303 307 282 11 329 287 325 343 324 259 181 173 213 220 262 250 274 324 232 254 243 230 317 186 181 168 215 231 188 192 208 237 275 292 291 276
338 330 326 14 69 21 308 293 296 280 260 100 256 297 311 334 299 285 211 175 193 218 224 229 184 214 227 229 226 189 191 209 235 223 238 216 212 224 245 259 261 269 276 278
351 346 352 60 354 312 311 277 281 266 217 199 243 220 261 276 281 286 241 199 215 204 213 186 211 240 242 220 171 173 176 198 203 205 208 210 222 247 269 280 282 281 280 280
18 352 355 332 339 26 346 307 332 314 272 207 240 238 270 290 226 270 265 260 191 221 221 200 246 266 195 159 137 149 158 212 233 233 240 251 259 265 276 279 279 280 282 286
348 322 324 36 34 324 256 280 264 170 255 322 314 321 302 284 240 239 256 255 186 225 136 193 257 248 145 162 160 145 158 238 273 266 260 262 277 281 284 287 286 289 292 293
6 42 58 50 27 337 105 323 312 346 344 311 317 319 283 291 254 259 256 215 221 128 174 235 229 159 171 173 168 157 171 147 95 80 63 42 278 272 289 308 323 323 315 306
19 30 350 134 290 227 210 177 292 287 291 301 307 289 261 253 249 240 247 191 120 207 228 234 237 216 182 178 179 161 135 115 94 79 71 60 52 37 19 5 1 354 353 352
6 159 225 217 255 253 221 276 276 304 299 307 307 274 241 260 256 223 237 195 217 222 253 14 341 253 198 184 177 167 147 133 90 53 39 31 19 12 2 1 357 351 345 344
235 231 247 246 291 296 254 277 290 329 321 313 258 265 259 241 267 243 223 190 202 16 350 322 320 221 197 186 177 166 149 113 66 39 22 15 7 358 354 353 350 347 345 344
231 253 246 260 266 259 280 284 293 320 332 318 317 279 298 296 261 261 14 34 354 330 345 338 307 240 199 190 179 167 133 150 43 9 1 357 356 353 347 340 345 345 345 345